DW6282 Weather Reports


Display with metric or nautical units.
time (UTC)temp
F
wind
direction
speed
MPH
gust
MPH
rain 1hr
in
rain 24hr
in
rain mn
in
humidity
%
barometer
mb
20220122180010 45 8 0.0 7.0 0.00 0.00 0.00 55 1030.1
20220122174513 44 353 2.0 12.0 0.00 0.00 0.00 55 1030.3
20220122173005 43 1 2.0 12.0 0.00 0.00 0.00 60 1030.6
20220122171505 42 15 4.0 11.0 0.00 0.00 0.00 63 1030.9
20220122170007 43 15 0.0 4.0 0.00 0.00 0.00 60 1031.2
20220122164701 42 69 0.0 7.0 0.00 0.00 0.00 59 1031.1
20220122163207 41 23 0.0 0.0 0.00 0.00 0.00 62 1031.2
20220122161650 40 355 0.0 1.0 0.00 0.00 0.00 64 1031.3
20220122160057 39 72 0.0 6.0 0.00 0.00 0.00 70 1031.1
20220122154626 38 1 1.0 11.0 0.00 0.00 0.00 74 1031.0
20220122153113 37 37 0.0 4.0 0.00 0.00 0.00 74 1030.9
20220122151705 36 37 1.0 11.0 0.00 0.00 0.00 76 1030.9
20220122150246 35 7 0.0 9.0 0.00 0.00 0.00 76 1030.8
20220122144622 35 26 1.0 10.0 0.00 0.00 0.00 77 1030.7
20220122143154 34 45 0.0 7.0 0.00 0.00 0.00 77 1030.5
20220122141629 34 41 1.0 12.0 0.00 0.00 0.00 77 1030.3
20220122140126 33 17 0.0 8.0 0.00 0.00 0.00 76 1030.4
20220122134613 33 5 0.0 6.0 0.00 0.00 0.00 76 1030.2
20220122133101 33 28 0.0 3.0 0.00 0.00 0.00 75 1029.9
20220122131552 33 6 0.0 6.0 0.00 0.00 0.00 73 1029.5
20220122130346 33 11 0.0 4.0 0.00 0.00 0.00 74 1029.4
20220122124547 33 41 0.0 10.0 0.00 0.00 0.00 72 1029.4
20220122121541 34 14 0.0 5.0 0.00 0.00 0.00 69 1029.0
20220122120023 34 21 0.0 10.0 0.00 0.00 0.00 68 1028.8
20220122114520 34 7 1.0 7.0 0.00 0.00 0.00 68 1028.5
20220122113039 35 33 0.0 9.0 0.00 0.00 0.00 69 1028.2
20220122111514 35 24 0.0 5.0 0.00 0.00 0.00 68 1028.0
20220122110012 35 19 1.0 10.0 0.00 0.00 0.00 69 1027.9
20220122104507 35 18 0.0 7.0 0.00 0.00 0.00 68 1027.8
20220122103008 36 32 0.0 9.0 0.00 0.00 0.00 68 1027.8
20220122101506 36 13 0.0 8.0 0.00 0.00 0.00 69 1027.7
20220122100001 36 10 0.0 7.0 0.00 0.00 0.00 72 1027.7
20220122094645 36 15 1.0 7.0 0.00 0.00 0.00 73 1027.7
20220122093137 37 4 0.0 3.0 0.00 0.00 0.00 73 1027.6
20220122091640 37 22 0.0 4.0 0.00 0.00 0.00 74 1027.4
20220122090216 37 353 0.0 0.0 0.00 0.00 0.00 72 1027.4
20220122084622 38 22 0.0 0.0 0.00 0.00 0.00 70 1027.3
20220122083128 38 76 0.0 7.0 0.00 0.00 0.00 69 1027.4
20220122081616 38 32 0.0 1.0 0.00 0.00 0.00 67 1027.4
20220122080057 38 39 0.0 2.0 0.00 0.00 0.00 62 1027.1
20220122074606 39 47 0.0 5.0 0.00 0.00 0.00 60 1027.0
20220122073054 39 327 0.0 8.0 0.00 0.00 0.00 63 1027.0
20220122071548 39 28 0.0 2.0 0.00 0.00 0.00 64 1027.0
20220122070351 39 3 0.0 2.0 0.00 0.00 0.00 64 1026.9
20220122064629 39 72 0.0 5.0 0.00 0.00 0.00 65 1027.1
20220122063110 39 95 0.0 0.0 0.00 0.00 0.00 65 1027.1
20220122061629 40 41 0.0 0.0 0.00 0.00 0.00 68 1027.2
20220122060105 40 359 0.0 0.0 0.00 0.00 0.00 66 1027.2
20220122054607 40 20 0.0 0.0 0.00 0.00 0.00 68 1027.2
20220122053114 40 11 0.0 0.0 0.00 0.00 0.00 65 1027.3
20220122051614 40 15 0.0 4.0 0.00 0.00 0.00 63 1027.3
20220122050112 41 4 0.0 3.0 0.00 0.00 0.00 62 1027.2
20220122044530 41 1 0.0 9.0 0.00 0.00 0.00 62 1027.4
20220122043043 41 12 0.0 2.0 0.00 0.00 0.00 65 1027.5
20220122041535 41 8 0.0 6.0 0.00 0.00 0.00 63 1027.5
20220122040047 42 23 0.0 5.0 0.00 0.00 0.00 60 1027.5
20220122034549 42 25 0.0 7.0 0.00 0.00 0.00 60 1027.3
20220122033031 42 18 0.0 10.0 0.00 0.00 0.00 61 1027.1
20220122031602 42 20 0.0 3.0 0.00 0.00 0.00 63 1027.1
20220122030041 42 11 0.0 7.0 0.00 0.00 0.00 63 1027.0
20220122024537 41 8 0.0 5.0 0.00 0.00 0.00 69 1027.1
20220122023037 38 76 0.0 0.0 0.00 0.00 0.00 75 1027.1
20220122021530 39 76 0.0 0.0 0.00 0.00 0.00 76 1027.0
20220122020027 38 76 0.0 0.0 0.00 0.00 0.00 79 1027.0
20220122014554 39 76 0.0 0.0 0.00 0.00 0.00 81 1026.7
20220122013030 39 76 0.0 0.0 0.00 0.00 0.00 75 1026.3
20220122011526 40 76 0.0 0.0 0.00 0.00 0.00 67 1026.2
20220122010020 41 76 0.0 0.0 0.00 0.00 0.00 64 1026.0
20220122004517 42 76 0.0 0.0 0.00 0.00 0.00 64 1025.8
20220122003030 42 76 0.0 0.0 0.00 0.00 0.00 60 1025.7
20220122001524 43 76 0.0 0.0 0.00 0.00 0.00 58 1025.4
20220122000032 44 56 0.0 0.0 0.00 0.00 0.00 55 1025.2
20220121234519 45 79 0.0 0.0 0.00 0.00 0.00 53 1025.1
20220121233016 46 13 0.0 6.0 0.00 0.00 0.00 52 1025.0
20220121231519 46 80 0.0 1.0 0.00 0.00 0.00 51 1024.9
20220121230014 46 349 0.0 0.0 0.00 0.00 0.00 52 1024.6
20220121224516 46 35 0.0 4.0 0.00 0.00 0.00 51 1024.6
20220121223031 46 306 0.0 4.0 0.00 0.00 0.00 55 1024.6
20220121221521 46 357 0.0 10.0 0.00 0.00 0.00 53 1024.7
20220121220012 46 347 0.0 5.0 0.00 0.00 0.00 54 1024.8
20220121214514 46 20 2.0 10.0 0.00 0.01 0.00 52 1024.8
20220121213029 46 345 0.0 11.0 0.00 0.01 0.00 53 1024.7
20220121211520 46 351 2.0 10.0 0.00 0.01 0.00 57 1025.2
20220121210018 45 333 0.0 9.0 0.00 0.01 0.00 54 1024.9
20220121204503 44 19 1.0 9.0 0.00 0.01 0.00 54 1025.2
20220121203006 44 18 0.0 10.0 0.00 0.01 0.00 55 1025.3
20220121201506 44 340 4.0 13.0 0.00 0.01 0.00 56 1025.4
20220121200420 44 339 0.0 7.0 0.00 0.01 0.00 54 1025.4
20220121194748 42 335 1.0 8.0 0.00 0.01 0.00 56 1025.6
20220121193147 41 23 0.0 10.0 0.00 0.01 0.00 59 1025.7
20220121191612 40 11 0.0 8.0 0.00 0.01 0.00 59 1026.1
20220121190055 41 23 0.0 13.0 0.00 0.01 0.00 62 1026.1
20220121184606 39 32 5.0 12.0 0.00 0.01 0.00 59 1026.4
20220121183102 39 25 6.0 12.0 0.00 0.01 0.00 63 1026.9
20220121181625 39 340 3.0 12.0 0.00 0.01 0.00 61 1027.4